KZR652 UACC-UAAA

Flight info

Callsign KZR652
Flight time 1h 19m
Altitude 35000
Route BANOS W333 ETEDA
Aircraft A321/M-SDE3FGHIRWY/LB1

Departure

Time 2026-04-25 05:12
Airport Nursultan Nazarbayev International Airport (UACC)

Arrival

Time 2026-04-25 06:31
Airport Almaty International Airport (UAAA)
Time Latitude Longitude Altitude Speed Heading
2026-04-25 05:00 51.02450 71.45762 1173 ft 0 kts 43°
2026-04-25 05:03 51.02449 71.45760 1173 ft 1 kts 43°
2026-04-25 05:03 51.02438 71.45744 1173 ft 2 kts 54°
2026-04-25 05:03 51.02433 71.45721 1173 ft 2 kts 81°
2026-04-25 05:04 51.02433 71.45697 1173 ft 2 kts 105°
2026-04-25 05:04 51.02439 71.45676 1173 ft 1 kts 128°
2026-04-25 05:04 51.02444 71.45669 1173 ft 1 kts 137°
2026-04-25 05:04 51.02446 71.45666 1173 ft 0 kts 135°
2026-04-25 05:06 51.02436 71.45680 1173 ft 6 kts 135°
2026-04-25 05:07 51.02387 71.45758 1173 ft 10 kts 134°
2026-04-25 05:07 51.02334 71.45845 1173 ft 10 kts 133°
2026-04-25 05:07 51.02307 71.45937 1173 ft 9 kts 64°
2026-04-25 05:07 51.02352 71.46023 1173 ft 10 kts 45°
2026-04-25 05:08 51.02399 71.46110 1173 ft 10 kts 71°
2026-04-25 05:08 51.02364 71.46225 1173 ft 12 kts 126°
2026-04-25 05:08 51.02373 71.46345 1173 ft 11 kts 46°
2026-04-25 05:08 51.02433 71.46434 1173 ft 11 kts 44°
2026-04-25 05:09 51.02490 71.46523 1173 ft 11 kts 44°
2026-04-25 05:09 51.02549 71.46614 1173 ft 13 kts 44°
2026-04-25 05:09 51.02634 71.46747 1173 ft 18 kts 44°
2026-04-25 05:09 51.02718 71.46877 1173 ft 13 kts 53°
2026-04-25 05:10 51.02709 71.46997 1173 ft 11 kts 130°
2026-04-25 05:10 51.02661 71.47071 1173 ft 9 kts 136°
2026-04-25 05:10 51.02612 71.47143 1173 ft 9 kts 142°
2026-04-25 05:10 51.02582 71.47124 1173 ft 4 kts 219°
2026-04-25 05:11 51.02571 71.47109 1173 ft 13 kts 221°
2026-04-25 05:11 51.02301 71.46691 1173 ft 92 kts 225°
2026-04-25 05:11 51.01686 71.45727 1175 ft 155 kts 223°
2026-04-25 05:12 50.99992 71.43218 2369 ft 170 kts 220°
2026-04-25 05:12 50.99056 71.42286 3213 ft 160 kts 193°
2026-04-25 05:12 50.97947 71.42657 3511 ft 180 kts 153°
2026-04-25 05:12 50.97000 71.44106 3779 ft 198 kts 139°
2026-04-25 05:13 50.96018 71.45753 4048 ft 211 kts 139°
2026-04-25 05:13 50.94953 71.47490 4289 ft 229 kts 139°
2026-04-25 05:13 50.93794 71.49347 4579 ft 247 kts 139°
2026-04-25 05:13 50.92539 71.51339 4936 ft 264 kts 139°
2026-04-25 05:14 50.91219 71.53429 5536 ft 271 kts 139°
2026-04-25 05:14 50.89900 71.55515 6240 ft 273 kts 139°
2026-04-25 05:14 50.88555 71.57635 6934 ft 277 kts 139°
2026-04-25 05:15 50.85792 71.61970 8355 ft 283 kts 139°
2026-04-25 05:15 50.84409 71.64135 9056 ft 286 kts 139°
2026-04-25 05:15 50.82988 71.66358 9742 ft 289 kts 140°
2026-04-25 05:15 50.81559 71.68589 10390 ft 293 kts 140°
2026-04-25 05:16 50.80067 71.70904 10750 ft 308 kts 139°
2026-04-25 05:16 50.78496 71.73340 11049 ft 324 kts 139°
2026-04-25 05:16 50.76880 71.75852 11532 ft 332 kts 139°
2026-04-25 05:16 50.75233 71.78413 12186 ft 335 kts 139°
2026-04-25 05:17 50.73573 71.80996 12840 ft 337 kts 139°
2026-04-25 05:17 50.71918 71.83566 13455 ft 340 kts 139°
2026-04-25 05:17 50.70229 71.86183 14063 ft 343 kts 139°
2026-04-25 05:17 50.68531 71.88811 14652 ft 346 kts 139°
2026-04-25 05:18 50.66818 71.91460 15233 ft 349 kts 139°
2026-04-25 05:18 50.65072 71.94155 15818 ft 352 kts 138°
2026-04-25 05:18 50.63326 71.96848 16371 ft 355 kts 139°
2026-04-25 05:18 50.61566 71.99560 16908 ft 359 kts 138°
2026-04-25 05:19 50.59763 72.02332 17442 ft 363 kts 138°
2026-04-25 05:19 50.57974 72.05082 17951 ft 366 kts 138°
2026-04-25 05:19 50.56148 72.07883 18450 ft 370 kts 138°
2026-04-25 05:19 50.54307 72.10707 18947 ft 374 kts 138°
2026-04-25 05:20 50.52425 72.13591 19443 ft 377 kts 138°
2026-04-25 05:20 50.50562 72.16442 19927 ft 381 kts 138°
2026-04-25 05:20 50.48649 72.19367 20412 ft 384 kts 138°
2026-04-25 05:20 50.46733 72.22291 20864 ft 388 kts 138°
2026-04-25 05:21 50.44787 72.25257 21287 ft 392 kts 138°
2026-04-25 05:21 50.42847 72.28211 21723 ft 396 kts 138°
2026-04-25 05:21 50.40860 72.31233 22177 ft 399 kts 138°
2026-04-25 05:21 50.38869 72.34258 22614 ft 402 kts 138°
2026-04-25 05:22 50.36852 72.37315 23038 ft 405 kts 138°
2026-04-25 05:22 50.34850 72.40349 23460 ft 408 kts 138°
2026-04-25 05:22 50.32798 72.43454 23886 ft 411 kts 138°
2026-04-25 05:22 50.30751 72.46549 24270 ft 414 kts 138°
2026-04-25 05:23 50.28669 72.49691 24668 ft 417 kts 138°
2026-04-25 05:23 50.26587 72.52830 25055 ft 420 kts 137°
2026-04-25 05:23 50.24478 72.56005 25425 ft 422 kts 137°
2026-04-25 05:23 50.22389 72.59148 25774 ft 425 kts 137°
2026-04-25 05:24 50.20226 72.62394 26120 ft 428 kts 137°
2026-04-25 05:24 50.18093 72.65585 26462 ft 431 kts 139°
2026-04-25 05:24 50.15915 72.68809 26800 ft 433 kts 139°
2026-04-25 05:24 50.13739 72.72008 27119 ft 436 kts 139°
2026-04-25 05:25 50.11519 72.75268 27442 ft 438 kts 139°
2026-04-25 05:25 50.09320 72.78493 27749 ft 440 kts 139°
2026-04-25 05:25 50.07077 72.81781 28051 ft 443 kts 139°
2026-04-25 05:25 50.04847 72.85049 28341 ft 445 kts 139°
2026-04-25 05:26 50.02588 72.88356 28623 ft 448 kts 139°
2026-04-25 05:26 50.00308 72.91685 28909 ft 450 kts 139°
2026-04-25 05:26 49.98025 72.95016 29212 ft 452 kts 139°
2026-04-25 05:26 49.95745 72.98341 29492 ft 454 kts 139°
2026-04-25 05:27 49.93430 73.01711 29712 ft 457 kts 139°
2026-04-25 05:27 49.91123 73.05066 29935 ft 460 kts 139°
2026-04-25 05:27 49.88800 73.08437 30186 ft 462 kts 139°
2026-04-25 05:27 49.86454 73.11837 30402 ft 465 kts 139°
2026-04-25 05:28 49.84085 73.15266 30621 ft 467 kts 138°
2026-04-25 05:28 49.81716 73.18690 30912 ft 468 kts 138°
2026-04-25 05:28 49.79355 73.22098 31266 ft 466 kts 139°
2026-04-25 05:28 49.76991 73.25508 31601 ft 465 kts 138°
2026-04-25 05:29 49.74616 73.28889 31912 ft 464 kts 140°
2026-04-25 05:29 49.72158 73.32046 32200 ft 463 kts 144°
2026-04-25 05:29 49.69546 73.34975 32467 ft 462 kts 148°
2026-04-25 05:29 49.66848 73.37595 32729 ft 461 kts 152°
2026-04-25 05:30 49.64052 73.39925 33003 ft 459 kts 156°
2026-04-25 05:30 49.61161 73.41970 33265 ft 458 kts 160°
2026-04-25 05:30 49.58187 73.43784 33489 ft 458 kts 161°
2026-04-25 05:30 49.55241 73.45539 33679 ft 460 kts 161°
2026-04-25 05:31 49.52254 73.47323 33859 ft 461 kts 161°
2026-04-25 05:31 49.49258 73.49113 34062 ft 462 kts 161°
2026-04-25 05:31 49.46287 73.50893 34268 ft 463 kts 161°
2026-04-25 05:31 49.43264 73.52706 34452 ft 464 kts 161°
2026-04-25 05:32 49.40279 73.54494 34611 ft 466 kts 161°
2026-04-25 05:32 49.37242 73.56314 34789 ft 467 kts 161°
2026-04-25 05:32 49.34250 73.58104 34942 ft 468 kts 161°
2026-04-25 05:32 49.31188 73.59932 35093 ft 468 kts 161°
2026-04-25 05:33 49.28166 73.61734 35142 ft 469 kts 161°
2026-04-25 05:33 49.22110 73.65340 35147 ft 470 kts 162°
2026-04-25 05:34 49.16048 73.68941 35156 ft 470 kts 162°
2026-04-25 05:34 49.09955 73.72552 35156 ft 470 kts 162°
2026-04-25 05:35 49.03873 73.76144 35157 ft 471 kts 162°
2026-04-25 05:35 48.97763 73.79741 35162 ft 471 kts 161°
2026-04-25 05:36 48.91691 73.83290 35166 ft 471 kts 162°
2026-04-25 05:36 48.85584 73.86845 35164 ft 472 kts 162°
2026-04-25 05:37 48.79456 73.90407 35171 ft 472 kts 161°
2026-04-25 05:37 48.73347 73.93948 35168 ft 473 kts 161°
2026-04-25 05:38 48.67195 73.97507 35172 ft 474 kts 161°
2026-04-25 05:38 48.61077 74.01038 35171 ft 474 kts 162°
2026-04-25 05:39 48.54907 74.04587 35177 ft 474 kts 162°
2026-04-25 05:39 48.48796 74.08092 35178 ft 473 kts 161°
2026-04-25 05:40 48.42623 74.11627 35178 ft 473 kts 161°
2026-04-25 05:40 48.36525 74.15108 35180 ft 473 kts 161°
2026-04-25 05:41 48.30381 74.18607 35175 ft 473 kts 161°
2026-04-25 05:41 48.24225 74.22105 35180 ft 475 kts 161°
2026-04-25 05:42 48.18076 74.25587 35185 ft 474 kts 161°
2026-04-25 05:42 48.11901 74.29082 35188 ft 474 kts 161°
2026-04-25 05:43 48.05760 74.32591 35188 ft 474 kts 161°
2026-04-25 05:43 47.99634 74.36092 35187 ft 474 kts 161°
2026-04-25 05:44 47.93503 74.39583 35198 ft 474 kts 161°
2026-04-25 05:44 47.87328 74.43085 35202 ft 475 kts 161°
2026-04-25 05:45 47.81162 74.46577 35187 ft 475 kts 161°
2026-04-25 05:45 47.74998 74.50056 35189 ft 474 kts 161°
2026-04-25 05:46 47.68875 74.53506 35184 ft 474 kts 161°
2026-04-25 05:46 47.62706 74.56972 35180 ft 474 kts 161°
2026-04-25 05:47 47.56544 74.60424 35179 ft 474 kts 161°
2026-04-25 05:47 47.50389 74.63873 35179 ft 474 kts 161°
2026-04-25 05:48 47.44264 74.67322 35184 ft 474 kts 161°
2026-04-25 05:48 47.38122 74.70768 35174 ft 474 kts 161°
2026-04-25 05:49 47.31929 74.74231 35172 ft 475 kts 161°
2026-04-25 05:49 47.25776 74.77664 35176 ft 475 kts 161°
2026-04-25 05:50 47.19624 74.81086 35170 ft 475 kts 161°
2026-04-25 05:50 47.13448 74.84515 35167 ft 474 kts 161°
2026-04-25 05:51 47.07270 74.87936 35165 ft 475 kts 161°
2026-04-25 05:51 47.01123 74.91332 35168 ft 475 kts 161°
2026-04-25 05:52 46.94959 74.94729 35164 ft 475 kts 162°
2026-04-25 05:52 46.88771 74.98144 35164 ft 475 kts 160°
2026-04-25 05:53 46.82741 75.01916 35167 ft 475 kts 159°
2026-04-25 05:53 46.76675 75.05771 35149 ft 475 kts 159°
2026-04-25 05:54 46.70631 75.09601 35159 ft 475 kts 159°
2026-04-25 05:54 46.61583 75.15311 35158 ft 475 kts 159°
2026-04-25 05:55 46.55556 75.19103 35150 ft 474 kts 159°
2026-04-25 05:55 46.49520 75.22894 35156 ft 473 kts 159°
2026-04-25 05:56 46.43467 75.26685 35148 ft 472 kts 159°
2026-04-25 05:56 46.37472 75.30430 35149 ft 472 kts 159°
2026-04-25 05:57 46.31421 75.34200 35158 ft 472 kts 159°
2026-04-25 05:57 46.25409 75.37936 35151 ft 473 kts 159°
2026-04-25 05:58 46.19384 75.41681 35158 ft 472 kts 159°
2026-04-25 05:58 46.13372 75.45435 35156 ft 471 kts 159°
2026-04-25 05:59 46.07394 75.49160 35156 ft 471 kts 159°
2026-04-25 05:59 46.01378 75.52898 35155 ft 471 kts 159°
2026-04-25 06:00 45.95388 75.56609 35158 ft 470 kts 159°
2026-04-25 06:00 45.89372 75.60328 35158 ft 470 kts 159°
2026-04-25 06:01 45.83357 75.64040 35156 ft 470 kts 159°
2026-04-25 06:01 45.77350 75.67736 35155 ft 470 kts 160°
2026-04-25 06:02 45.71363 75.71410 35155 ft 468 kts 160°
2026-04-25 06:02 45.65390 75.75070 35162 ft 467 kts 160°
2026-04-25 06:03 45.59312 75.78178 35153 ft 461 kts 172°
2026-04-25 06:03 45.53014 75.79905 35158 ft 459 kts 174°
2026-04-25 06:04 45.46749 75.81553 35153 ft 459 kts 173°
2026-04-25 06:04 45.40522 75.83231 35154 ft 458 kts 173°
2026-04-25 06:05 45.34253 75.84939 35152 ft 457 kts 173°
2026-04-25 06:05 45.28008 75.86644 35153 ft 457 kts 173°
2026-04-25 06:06 45.21782 75.88341 35157 ft 456 kts 173°
2026-04-25 06:06 45.15573 75.90031 35152 ft 456 kts 173°
2026-04-25 06:07 45.09318 75.91728 35148 ft 456 kts 173°
2026-04-25 06:07 45.03122 75.93405 35140 ft 455 kts 173°
2026-04-25 06:08 44.96877 75.95096 35127 ft 455 kts 173°
2026-04-25 06:08 44.90669 75.96774 35130 ft 454 kts 173°
2026-04-25 06:09 44.84464 75.98444 35126 ft 454 kts 173°
2026-04-25 06:09 44.78259 76.00111 34732 ft 453 kts 173°
2026-04-25 06:10 44.75158 76.00943 34209 ft 453 kts 173°
2026-04-25 06:10 44.72068 76.01769 33492 ft 455 kts 173°
2026-04-25 06:10 44.68945 76.02601 32721 ft 458 kts 173°
2026-04-25 06:10 44.65801 76.03439 31917 ft 462 kts 173°
2026-04-25 06:11 44.62636 76.04281 31076 ft 465 kts 173°
2026-04-25 06:11 44.59456 76.05128 30246 ft 460 kts 172°
2026-04-25 06:11 44.56371 76.05957 29683 ft 452 kts 173°
2026-04-25 06:11 44.53962 76.06601 29295 ft 450 kts 173°
2026-04-25 06:12 44.51424 76.07278 28914 ft 448 kts 173°
2026-04-25 06:12 44.48373 76.08087 28441 ft 444 kts 172°
2026-04-25 06:12 44.45343 76.08893 27982 ft 441 kts 172°
2026-04-25 06:12 44.42325 76.09692 27507 ft 437 kts 172°
2026-04-25 06:13 44.39385 76.10471 27055 ft 434 kts 172°
2026-04-25 06:13 44.36429 76.11254 26590 ft 430 kts 173°
2026-04-25 06:13 44.33509 76.12026 26130 ft 426 kts 172°
2026-04-25 06:14 44.27734 76.13549 25197 ft 419 kts 172°
2026-04-25 06:14 44.24876 76.14301 24718 ft 416 kts 172°
2026-04-25 06:14 44.22029 76.15050 24234 ft 413 kts 172°
2026-04-25 06:14 44.19226 76.15786 23754 ft 410 kts 172°
2026-04-25 06:15 44.16438 76.16519 23293 ft 406 kts 172°
2026-04-25 06:15 44.13672 76.17245 22827 ft 403 kts 172°
2026-04-25 06:15 44.10918 76.17968 22358 ft 400 kts 172°
2026-04-25 06:15 44.08218 76.18675 21901 ft 397 kts 172°
2026-04-25 06:16 44.05519 76.19383 21440 ft 394 kts 172°
2026-04-25 06:16 44.02829 76.20086 20973 ft 391 kts 172°
2026-04-25 06:16 44.00174 76.20779 20503 ft 389 kts 172°
2026-04-25 06:16 43.97518 76.21471 20052 ft 387 kts 172°
2026-04-25 06:17 43.94901 76.22154 19596 ft 385 kts 172°
2026-04-25 06:17 43.92246 76.22845 19110 ft 383 kts 172°
2026-04-25 06:17 43.89666 76.23517 18670 ft 381 kts 172°
2026-04-25 06:17 43.87071 76.24252 18189 ft 380 kts 170°
2026-04-25 06:18 43.84501 76.25044 17718 ft 376 kts 170°
2026-04-25 06:18 43.81953 76.25834 17296 ft 373 kts 170°
2026-04-25 06:18 43.79447 76.26611 16842 ft 370 kts 169°
2026-04-25 06:18 43.76925 76.27393 16402 ft 368 kts 169°
2026-04-25 06:19 43.74445 76.28161 15956 ft 365 kts 169°
2026-04-25 06:19 43.71959 76.28928 15499 ft 364 kts 169°
2026-04-25 06:19 43.69484 76.29691 15033 ft 362 kts 169°
2026-04-25 06:19 43.67030 76.30450 14575 ft 359 kts 168°
2026-04-25 06:20 43.64695 76.31634 14080 ft 361 kts 153°
2026-04-25 06:20 43.62573 76.33450 13573 ft 362 kts 147°
2026-04-25 06:20 43.60477 76.35403 13085 ft 361 kts 147°
2026-04-25 06:20 43.58409 76.37305 12639 ft 359 kts 147°
2026-04-25 06:21 43.56330 76.39161 12314 ft 353 kts 148°
2026-04-25 06:21 43.54272 76.40958 11919 ft 348 kts 149°
2026-04-25 06:21 43.52246 76.42700 11419 ft 336 kts 149°
2026-04-25 06:21 43.50307 76.44354 10971 ft 324 kts 149°
2026-04-25 06:22 43.48403 76.45969 10573 ft 319 kts 149°
2026-04-25 06:22 43.46535 76.47548 10373 ft 310 kts 149°
2026-04-25 06:22 43.44713 76.49086 10250 ft 299 kts 149°
2026-04-25 06:22 43.42964 76.50562 10129 ft 289 kts 149°
2026-04-25 06:23 43.41279 76.51983 9867 ft 287 kts 149°
2026-04-25 06:23 43.39578 76.53413 9501 ft 288 kts 149°
2026-04-25 06:23 43.37851 76.54864 9167 ft 288 kts 148°
2026-04-25 06:23 43.36136 76.56306 8822 ft 289 kts 148°
2026-04-25 06:24 43.34423 76.57747 8457 ft 290 kts 148°
2026-04-25 06:24 43.32698 76.59196 8096 ft 290 kts 148°
2026-04-25 06:24 43.30993 76.60627 7752 ft 290 kts 148°
2026-04-25 06:24 43.29262 76.62079 7434 ft 288 kts 148°
2026-04-25 06:25 43.27577 76.63500 7273 ft 280 kts 146°
2026-04-25 06:25 43.26226 76.65332 7037 ft 273 kts 117°
2026-04-25 06:25 43.25703 76.67770 6819 ft 265 kts 99°
2026-04-25 06:25 43.25375 76.70254 6513 ft 265 kts 100°
2026-04-25 06:26 43.25014 76.72736 6185 ft 264 kts 101°
2026-04-25 06:26 43.24630 76.75190 5910 ft 262 kts 101°
2026-04-25 06:26 43.24231 76.77638 5606 ft 262 kts 102°
2026-04-25 06:26 43.23865 76.80054 5434 ft 255 kts 95°
2026-04-25 06:27 43.24162 76.82347 5306 ft 241 kts 60°
2026-04-25 06:27 43.25102 76.84219 5288 ft 236 kts 50°
2026-04-25 06:27 43.26114 76.85889 5080 ft 220 kts 50°
2026-04-25 06:27 43.27035 76.87478 4629 ft 209 kts 52°
2026-04-25 06:28 43.27853 76.89030 4384 ft 191 kts 54°
2026-04-25 06:28 43.28569 76.90467 4116 ft 179 kts 55°
2026-04-25 06:28 43.29237 76.91833 3866 ft 164 kts 55°
2026-04-25 06:28 43.29849 76.93079 3649 ft 151 kts 56°
2026-04-25 06:29 43.30424 76.94248 3471 ft 148 kts 54°
2026-04-25 06:29 43.31011 76.95437 3301 ft 148 kts 56°
2026-04-25 06:29 43.31575 76.96588 3109 ft 147 kts 55°
2026-04-25 06:29 43.32149 76.97763 2911 ft 147 kts 55°
2026-04-25 06:30 43.32726 76.98913 2734 ft 147 kts 55°
2026-04-25 06:30 43.33291 77.00076 2558 ft 147 kts 54°
2026-04-25 06:30 43.33868 77.01234 2365 ft 146 kts 56°
2026-04-25 06:30 43.34435 77.02369 2249 ft 141 kts 56°
2026-04-25 06:31 43.34925 77.03361 2234 ft 101 kts 56°
2026-04-25 06:31 43.35216 77.03951 2241 ft 57 kts 56°
2026-04-25 06:31 43.35428 77.04377 2245 ft 50 kts 58°
2026-04-25 06:31 43.35609 77.04755 2246 ft 43 kts 56°
2026-04-25 06:32 43.35772 77.05074 2246 ft 37 kts 56°
2026-04-25 06:32 43.35871 77.05164 2245 ft 12 kts 346°
2026-04-25 06:32 43.35941 77.05109 2244 ft 10 kts 325°
2026-04-25 06:32 43.35971 77.05026 2243 ft 11 kts 256°
2026-04-25 06:33 43.35928 77.04929 2242 ft 12 kts 235°
2026-04-25 06:33 43.35869 77.04812 2242 ft 18 kts 235°
2026-04-25 06:33 43.35789 77.04650 2242 ft 23 kts 236°
2026-04-25 06:33 43.35690 77.04449 2241 ft 25 kts 236°
2026-04-25 06:34 43.35593 77.04253 2240 ft 23 kts 236°
2026-04-25 06:34 43.35505 77.04073 2239 ft 21 kts 236°
2026-04-25 06:34 43.35424 77.03912 2237 ft 20 kts 236°
2026-04-25 06:34 43.35345 77.03751 2237 ft 21 kts 236°
2026-04-25 06:35 43.35258 77.03571 2235 ft 24 kts 236°
2026-04-25 06:35 43.35158 77.03368 2233 ft 27 kts 236°
2026-04-25 06:35 43.35048 77.03143 2231 ft 28 kts 236°
2026-04-25 06:35 43.34940 77.02929 2231 ft 25 kts 235°
2026-04-25 06:36 43.34846 77.02742 2231 ft 22 kts 235°
2026-04-25 06:36 43.34778 77.02581 2233 ft 14 kts 253°
2026-04-25 06:36 43.34774 77.02447 2233 ft 13 kts 275°
2026-04-25 06:36 43.34782 77.02323 2232 ft 12 kts 274°
2026-04-25 06:37 43.34788 77.02196 2229 ft 14 kts 274°
2026-04-25 06:37 43.34792 77.02062 2228 ft 13 kts 272°
2026-04-25 06:37 43.34798 77.01938 2228 ft 12 kts 274°
2026-04-25 06:37 43.34804 77.01836 2228 ft 2 kts 273°
2026-04-25 06:38 43.34805 77.01811 2227 ft 0 kts 273°
2026-04-25 06:40 43.34806 77.01823 2228 ft 2 kts 240°
2026-04-25 06:40 43.34817 77.01837 2227 ft 2 kts 191°
2026-04-25 06:40 43.34832 77.01837 2227 ft 2 kts 181°
2026-04-25 06:41 43.34847 77.01839 2227 ft 2 kts 186°
2026-04-25 06:41 43.34862 77.01841 2227 ft 2 kts 184°
2026-04-25 06:41 43.34868 77.01841 2226 ft 0 kts 184°